SCP
0 0 0 0 0 0 0 0 0 0 0 0 0 0 0 0 -0 0 0 0 0 0 0 0 0 0 0 0 0 0 0 0 0 0 0 0 0 0 0 0 0 0 0 0 0
0 0 0 0 0 0 0 0 0 0 0 0 0 0 0 0 0 0 0 0 0 0 0 0 0 0 0 0 0 0 0 0 0 0 0 0 0 0 0 0 0 0 0 0 0
0 0 0 0 0 0 0 0 0 0 0 0 0 0 0 0 0 0 0 0 0 0 -0 0 0 0 0 0 0 0 0 0 0 0 0 0 0 0 0 0 0 0 0 0 0
0 0 0 0 0 0 0 0 0 0 0 0 0 0 0 0 0 0 0 0 0 0 0 0 0 0 0 0 0 0 0 0 0 0 0 0 0 0 0 0 0 0 0 0 0
0 0 0 0 0 0 0 0 0 0 0 0 0 0 0 0 0 0 0 0 0 0 0 0 0 0 0 0 0 0 0 0 0 0 0 0 0 0 0 0 0 0 0 0 0
0 0 0 0 0 0 0 0 0 0 0 0 0 0 0 0 0 0 0 0 0 0 0 0 0 0 0 0 0 0 0 0 0 0 0 0 0 0 0 0 0 0 0 0 0
0 0 0 0 0 0 0 0 0 0 0 0 0 0 0 0 0 0 0 0 0 0 0 0 0 0 0 0 0 0 0 0 0 0 0 0 0 0 0 0 0 0 0 0 0
0 0 0 0 0 0 0 0 0 0 0 0 0 0 0 0 0 0 0 0 0 0 0 0 0 0 0 0 0 0 0 0 0 0 0 0 0 0 0 0 0 0 0 0 0
0 0 0 0 0 0 0 0 0 0 0 0 0 0 0 0 0 0 0 0 0 0 0 0 0 0 0 0 0 0 0 0 0 0 0 0 0 0 0 0 0 0 0 0 0
0 0 0 0 0 0 0 0 0 0 0 0 0 0 0 0 0 0 0 0 0 0 0 0 0 0 0 0 0 0 0 0 0 0 0 0 0 0 0 0 0 0 0 0 0
0 0 0 0 0 0 0 0 0 0 0 0 0 0 0 0 0 0 0 0 0 0 0 0 0 0 0 0 0 0 0 0 0 0 0 0 0 0 0 0 0 0 0 0 0
0 0 0 0 0 0 0 0 0 0 0 0 0 0 0 0 0 0 0 0 0 0 0 0 0 0 0 0 0 0 0 0 0 0 0 0 0 0 -0 0 0 0 0 0 0
0 0 0 0 0 0 0 0 0 0 0 0 0 0 0 0 0 0 0 0 0 0 0 0 0 0 0 0 0 0 0 0 0 0 0 0 0 -0 0 0 0 0 0 0 0
0 0 0 0 0 0 0 0 0 0 0 0 0 0 0 0 0 0 0 0 0 0 0 0 0 0 0 0 0 0 0 0 0 0 0 0 0 0 0 0 0 0 0 0 0
0 0 0 0 0 0 0 0 0 0 0 0 0 0 0 0 0 0 0 0 0 0 0 0 0 0 0 0 0 0 0 0 0 0 0 0 0 -0 0 0 0 0 0 0 0
0 0 0 0 0 0 0 0 0 0 0 0 0 0 0 0 0 0 0 0 0 0 0 0 0 0 0 0 0 0 0 0 0 0 0 0 0 0 0 0 0 0 0 0 0
0 0 0 0 0 0 0 0 0 0 0 0 0 0 0 0 0 0 0 0 0 0 0 0 0 0 0 0 0 0 0 0 0 0 0 0 0 0 0 0 0 0 0 0 0
0 0 0 0 0 0 0 0 0 0 0 0 0 0 0 0 0 0 0 0 0 0 0 0 0 0 0 0 0 0 0 0 0 0 0 0 0 0 0 0 0 0 0 0 0
0 0 0 0 0 0 0 0 0 0 0 0 0 0 0 0 0 0 0 0 0 0 0 0 0 0 0 0 0 0 0 0 0 0 0 0 0 0 0 0 0 0 0 0 0
0 0 0 0 0 0 0 0 0 0 0 0 0 0 0 0 0 0 0 0 0 0 0 0 0 0 0 0 0 0 0 0 0 0 0 0 0 0 0 0 0 0 0 0 0
0 0 0 0 0 0 0 0 0 0 0 0 0 0 0 0 0 0 0 0 0 0 0 0 0 0 0 0 0 0 0 0 0 0 0 0 0 0 0 0 0 0 0 0 0
0 0 0 0 0 0 0 0 0 0 0 0 0 0 0 0 0 0 0 0 0 0 0 0 0 0 0 0 0 0 0 0 0 0 0 0 0 0 0 0 0 0 0 0 0
0 0 0 0 0 0 0 0 0 0 0 0 0 0 0 0 0 0 0 0 0 0 0 0 0 0 0 0 0 0 0 0 0 0 0 0 0 0 0 -0 -0 0 0 0 -0
0 0 0 0 0 0 0 0 0 0 0 0 0 0 0 0 0 0 0 0 0 0 0 0 0 0 0 0 0 0 0 0 0 0 0 0 0 0 0 -0 -0 -0 -0 -0 -0
0 0 0 0 0 0 0 0 0 0 0 0 0 0 0 0 0 0 0 0 0 0 0 0 0 0 0 0 0 0 0 0 0 0 0 0 0 0 0 0 0 0 0 0 0
0 0 0 0 0 0 0 0 0 0 0 0 0 0 0 0 0 0 0 0 0 0 0 0 0 0 0 0 0 0 0 0 0 0 0 0 0 0 0 0 0 0 0 0 0
0 0 0 0 0 0 0 0 0 0 0 0 0 0 0 0 0 0 0 0 0 0 0 0 0 0 0 0 0 0 0 0 0 0 0 0 0 0 0 0 0 0 0 0 0
Wind_Speed_500mb
7 6 7 9 10 12 13 14 15 15 16 18 20 23 25 27 30 35 35 22 23 18 15 12 10 5 3 6 9 7 6 9 15 9 9 18 5 5 11 21 34 16 27 31 33
12 12 11 11 12 14 15 17 18 19 21 22 24 25 28 32 36 38 24 20 14 7 11 10 5 8 10 9 7 7 6 11 15 17 15 35 26 29 25 27 44 35 37 46 41
17 17 18 18 18 18 19 20 21 22 23 24 26 27 28 30 33 5 5 4 5 5 6 8 13 14 20 18 13 11 9 14 29 40 21 22 32 35 34 16 48 45 44 35 28
22 22 22 23 23 23 23 24 25 26 26 27 28 27 27 22 11 8 9 11 10 9 10 13 13 15 12 13 27 16 28 34 37 30 17 12 31 35 43 49 51 56 54 54 53
27 27 26 26 26 26 26 27 27 28 28 29 29 28 25 12 21 33 30 31 29 23 18 15 18 22 13 14 24 14 27 38 39 29 33 32 36 31 53 63 56 58 51 47 45
29 28 26 25 24 25 26 27 26 27 27 28 28 28 22 18 24 27 28 19 16 17 15 21 11 14 25 22 18 26 29 34 40 55 52 29 33 22 47 43 48 48 39 41 41
26 26 26 25 23 23 25 26 27 27 26 25 25 25 26 35 31 27 28 25 20 18 19 17 24 14 14 14 14 17 13 21 38 37 17 16 11 19 46 25 21 24 40 44 39
26 24 22 21 20 21 23 24 24 25 25 25 23 20 18 24 29 26 27 30 24 20 24 28 27 21 15 17 16 14 14 11 12 10 9 15 12 22 18 30 38 59 64 51 60
21 20 17 17 17 18 20 22 25 26 25 22 16 13 13 12 11 11 12 11 14 16 21 19 14 13 14 7 10 15 10 17 18 15 12 11 10 16 38 51 51 62 55 46 37
20 19 18 17 18 17 19 23 25 20 13 8 9 8 14 7 9 9 6 11 4 7 3 9 10 6 6 6 9 12 17 20 24 14 23 22 22 20 30 49 56 50 50 37 50
21 20 19 19 19 18 19 19 13 7 5 12 15 23 20 23 21 20 9 12 13 9 8 16 7 12 21 22 26 19 18 26 21 19 25 23 25 20 46 46 47 51 14 64 63
24 22 20 23 25 22 17 4 8 9 19 35 46 47 39 36 13 20 10 14 13 11 21 5 12 23 13 17 18 18 23 26 17 16 17 20 29 41 36 33 7 39 51 57 54
32 29 25 20 19 16 11 8 10 13 11 13 19 13 14 18 11 11 18 13 12 12 15 18 14 27 18 15 20 21 16 21 20 16 14 16 16 16 6 36 58 67 63 59 48
39 34 20 13 7 6 7 6 6 13 7 13 9 6 7 10 6 11 18 10 11 10 10 16 6 4 10 14 14 15 7 7 13 13 7 17 10 12 16 24 33 51 54 49 43
43 33 26 20 13 11 10 4 9 8 10 6 9 8 8 6 8 3 12 6 13 13 6 5 13 11 9 11 6 8 7 5 14 11 12 17 10 11 33 21 22 31 43 40 37
38 30 30 26 26 22 13 8 6 5 13 7 10 11 8 10 7 6 4 6 3 5 11 16 11 7 11 5 4 7 6 17 17 7 3 8 6 8 9 28 15 31 36 32 29
35 30 27 27 18 21 18 9 6 11 4 11 5 8 10 10 12 12 10 9 9 7 13 11 16 9 8 4 6 3 7 6 6 2 9 15 11 8 9 23 31 33 34 32 28
35 28 22 24 18 17 20 6 17 8 14 5 5 7 9 15 13 15 7 12 19 16 4 8 5 16 12 10 4 12 4 6 11 5 12 15 11 7 21 39 48 43 34 31 29
27 25 24 21 18 18 16 11 7 13 8 6 9 8 18 25 13 11 18 19 7 13 10 6 7 6 5 5 7 3 5 6 7 5 3 9 12 10 21 23 34 37 33 26 23
27 20 23 21 16 17 7 14 13 20 11 9 11 14 14 4 6 11 2 5 6 7 9 6 9 5 3 6 4 3 3 3 5 6 9 11 9 10 22 24 21 21 25 18 14
22 10 15 26 21 12 11 12 19 36 11 11 14 21 21 13 13 11 9 5 6 8 3 2 7 8 12 6 10 1 3 6 2 7 7 14 11 11 24 20 18 18 14 10 8
16 5 17 33 15 12 19 9 23 27 14 12 8 12 8 9 9 11 13 11 10 5 8 4 5 10 13 16 13 9 11 7 8 10 8 9 17 15 24 22 23 16 10 4 2
11 12 22 48 11 20 8 15 41 14 13 10 15 18 12 15 10 22 18 19 10 5 3 5 2 5 15 4 11 11 7 6 7 3 10 10 10 13 25 21 7 14 3 2 6
11 6 12 38 28 12 22 26 27 22 32 27 13 15 13 15 14 5 2 5 12 12 11 6 9 11 14 11 10 6 10 18 11 8 12 22 29 44 43 8 16 12 5 2 11
25 10 19 10 24 28 12 8 34 30 25 13 12 28 15 10 15 23 15 14 13 9 7 3 9 11 21 24 14 10 20 30 18 28 20 45 41 45 33 32 18 9 5 4 14
15 10 8 9 31 32 29 18 25 11 18 17 19 9 20 24 13 4 8 4 5 1 8 3 7 4 10 9 17 25 36 27 33 34 36 39 45 36 27 8 14 21 15 16 23
26 15 6 13 6 18 26 31 15 16 10 0 3 3 6 7 25 18 10 4 4 9 10 12 5 4 11 6 9 15 25 36 32 35 34 34 33 3 5 7 12 12 15 24 26
Wind_Direction_500mb
286 295 306 315 321 324 323 323 322 321 320 318 318 318 319 319 317 310 303 283 285 281 250 247 245 277 272 254 270 302 296 277 278 298 273 129 177 247 254 271 283 262 263 279 286
293 297 298 301 305 308 311 313 314 315 315 315 315 316 318 322 320 310 299 298 276 248 219 230 221 224 237 217 203 225 235 263 314 338 332 327 327 316 303 289 284 291 280 256 258
286 291 296 299 300 302 304 304 306 307 308 309 311 313 317 325 328 307 330 51 98 128 165 216 236 238 246 258 212 209 227 277 309 324 342 323 306 297 286 275 269 276 293 319 259
284 289 291 295 297 300 300 299 302 304 305 307 308 309 311 318 304 321 314 287 266 260 264 238 222 216 233 243 228 253 255 268 281 284 301 284 300 301 283 274 268 279 284 290 288
282 286 289 292 294 296 296 298 301 304 306 307 306 305 307 293 255 273 281 281 272 270 265 218 235 236 260 268 304 271 259 269 291 301 287 286 276 282 282 274 271 280 284 283 280
281 284 285 288 293 296 298 301 304 305 306 306 304 300 292 249 264 267 273 269 257 245 239 207 222 271 293 285 267 297 331 307 287 276 270 261 271 292 280 280 281 277 290 286 281
270 274 280 285 289 292 296 303 307 309 309 305 301 294 272 267 266 266 271 273 253 237 225 241 247 254 307 318 323 319 309 285 273 268 234 197 279 233 274 320 319 296 288 291 294
265 268 274 279 285 293 299 304 307 307 307 302 294 281 257 268 264 268 267 267 260 243 231 224 229 246 256 276 305 273 256 280 264 206 127 123 262 287 318 327 316 295 284 292 299
259 263 266 271 278 285 297 306 310 307 301 293 282 246 261 282 278 280 256 235 268 234 229 242 228 224 262 220 283 229 256 259 284 255 144 170 239 264 284 285 281 276 288 297 302
249 255 262 270 279 291 305 314 310 296 285 283 242 243 244 251 283 295 289 213 194 181 121 173 206 222 227 213 235 276 296 306 306 317 312 298 265 252 299 293 287 297 298 294 78
241 248 261 272 278 291 305 327 325 309 264 224 267 257 275 270 278 273 231 173 136 178 215 194 220 210 231 234 244 274 314 303 303 308 290 286 303 308 284 279 285 285 304 91 77
241 249 262 278 283 284 300 303 290 293 298 276 269 261 261 258 260 257 196 171 181 209 208 122 228 242 298 332 314 308 295 289 281 294 335 321 301 280 284 281 5 70 83 83 73
249 257 272 277 288 268 246 252 296 302 256 283 228 232 221 243 244 230 183 194 187 226 231 217 261 328 305 277 276 271 268 300 315 338 290 302 276 258 56 79 82 66 69 70 70
252 259 260 251 287 223 216 259 302 312 273 187 179 192 188 172 216 235 207 209 215 233 233 242 164 194 272 271 261 280 272 325 320 341 287 40 273 305 275 86 71 71 66 63 60
244 241 239 226 192 188 220 237 300 333 289 123 139 160 170 190 145 125 176 200 249 189 182 231 154 177 222 240 245 233 45 303 271 261 304 250 261 252 102 107 97 85 80 75 70
232 239 222 221 224 230 221 193 311 234 242 141 130 162 184 187 172 131 145 200 298 275 222 254 154 198 215 227 267 60 263 253 249 205 284 300 253 294 29 135 111 103 99 92 79
223 222 223 216 214 211 194 173 202 229 130 151 179 161 234 167 170 192 174 190 200 191 203 205 200 217 186 217 123 190 264 317 344 85 213 42 354 297 61 138 135 126 110 99 84
217 210 204 200 198 171 175 175 221 223 248 100 120 165 230 156 218 193 270 238 229 237 258 244 266 153 169 212 96 197 287 176 244 201 265 341 252 252 113 102 108 110 105 89 74
183 186 195 206 207 201 179 214 233 203 280 233 140 241 224 229 190 194 217 249 266 164 195 304 233 104 142 73 138 88 208 324 276 55 312 227 238 98 121 122 118 105 89 74 63
213 217 223 218 206 208 243 225 220 232 3 334 220 233 269 284 161 193 314 74 81 41 33 37 295 264 89 104 61 157 23 321 17 266 242 262 267 266 163 141 109 92 92 77 60
186 198 202 208 192 193 227 222 237 255 298 237 247 257 272 269 198 226 240 138 48 161 144 193 230 270 1 197 206 162 242 193 140 156 242 272 268 98 91 98 97 101 104 103 103
184 198 185 183 165 208 231 230 238 260 242 252 272 265 256 309 292 278 227 185 83 55 150 82 113 260 233 294 317 290 284 251 206 224 230 267 250 111 113 108 119 144 145 157 121
201 197 176 180 197 215 246 232 241 233 226 230 219 216 205 233 237 235 243 92 96 85 166 119 154 320 323 86 36 59 357 338 347 185 217 267 260 133 132 136 142 142 150 330 339
185 203 179 202 232 237 209 230 223 219 240 235 272 252 234 236 248 238 188 106 87 102 85 56 185 201 233 260 74 263 249 256 257 275 299 269 291 291 296 321 144 157 193 304 339
198 236 190 199 216 222 234 244 223 223 209 216 235 236 223 245 251 246 223 132 113 128 93 6 223 199 252 271 293 274 269 276 265 259 251 269 277 274 293 304 123 165 198 31 344
197 191 213 300 199 207 217 225 239 256 178 209 235 265 225 231 186 224 66 89 156 68 108 87 249 131 276 219 255 262 258 260 261 261 261 261 268 277 294 2 73 57 27 337 318
215 204 160 193 207 196 215 218 219 222 249 26 18 191 168 33 75 88 80 26 26 149 153 171 182 102 265 91 24 305 245 244 254 259 263 267 272 5 165 94 56 28 321 298 300
Wind_Speed_850mb
7 6 7 9 10 12 13 14 15 15 16 18 20 23 25 27 30 35 35 22 23 18 15 12 10 5 3 6 9 7 6 9 15 9 9 18 5 5 11 21 34 16 27 31 33
12 12 11 11 12 14 15 17 18 19 21 22 24 25 28 32 36 38 24 20 14 7 11 10 5 8 10 9 7 7 6 11 15 17 15 35 26 29 25 27 44 35 37 46 41
17 17 18 18 18 18 19 20 21 22 23 24 26 27 28 30 33 5 5 4 5 5 6 8 13 14 20 18 13 11 9 14 29 40 21 22 32 35 34 16 48 45 44 35 28
22 22 22 23 23 23 23 24 25 26 26 27 28 27 27 22 11 8 9 11 10 9 10 13 13 15 12 13 27 16 28 34 37 30 17 12 31 35 43 49 51 56 54 54 53
27 27 26 26 26 26 26 27 27 28 28 29 29 28 25 12 21 33 30 31 29 23 18 15 18 22 13 14 24 14 27 38 39 29 33 32 36 31 53 63 56 58 51 47 45
29 28 26 25 24 25 26 27 26 27 27 28 28 28 22 18 24 27 28 19 16 17 15 21 11 14 25 22 18 26 29 34 40 55 52 29 33 22 47 43 48 48 39 41 41
26 26 26 25 23 23 25 26 27 27 26 25 25 25 26 35 31 27 28 25 20 18 19 17 24 14 14 14 14 17 13 21 38 37 17 16 11 19 46 25 21 24 40 44 39
26 24 22 21 20 21 23 24 24 25 25 25 23 20 18 24 29 26 27 30 24 20 24 28 27 21 15 17 16 14 14 11 12 10 9 15 12 22 18 30 38 59 64 51 60
21 20 17 17 17 18 20 22 25 26 25 22 16 13 13 12 11 11 12 11 14 16 21 19 14 13 14 7 10 15 10 17 18 15 12 11 10 16 38 51 51 62 55 46 37
20 19 18 17 18 17 19 23 25 20 13 8 9 8 14 7 9 9 6 11 4 7 3 9 10 6 6 6 9 12 17 20 24 14 23 22 22 20 30 49 56 50 50 37 50
21 20 19 19 19 18 19 19 13 7 5 12 15 23 20 23 21 20 9 12 13 9 8 16 7 12 21 22 26 19 18 26 21 19 25 23 25 20 46 46 47 51 14 64 63
24 22 20 23 25 22 17 4 8 9 19 35 46 47 39 36 13 20 10 14 13 11 21 5 12 23 13 17 18 18 23 26 17 16 17 20 29 41 36 33 7 39 51 57 54
32 29 25 20 19 16 11 8 10 13 11 13 19 13 14 18 11 11 18 13 12 12 15 18 14 27 18 15 20 21 16 21 20 16 14 16 16 16 6 36 58 67 63 59 48
39 34 20 13 7 6 7 6 6 13 7 13 9 6 7 10 6 11 18 10 11 10 10 16 6 4 10 14 14 15 7 7 13 13 7 17 10 12 16 24 33 51 54 49 43
43 33 26 20 13 11 10 4 9 8 10 6 9 8 8 6 8 3 12 6 13 13 6 5 13 11 9 11 6 8 7 5 14 11 12 17 10 11 33 21 22 31 43 40 37
38 30 30 26 26 22 13 8 6 5 13 7 10 11 8 10 7 6 4 6 3 5 11 16 11 7 11 5 4 7 6 17 17 7 3 8 6 8 9 28 15 31 36 32 29
35 30 27 27 18 21 18 9 6 11 4 11 5 8 10 10 12 12 10 9 9 7 13 11 16 9 8 4 6 3 7 6 6 2 9 15 11 8 9 23 31 33 34 32 28
35 28 22 24 18 17 20 6 17 8 14 5 5 7 9 15 13 15 7 12 19 16 4 8 5 16 12 10 4 12 4 6 11 5 12 15 11 7 21 39 48 43 34 31 29
27 25 24 21 18 18 16 11 7 13 8 6 9 8 18 25 13 11 18 19 7 13 10 6 7 6 5 5 7 3 5 6 7 5 3 9 12 10 21 23 34 37 33 26 23
27 20 23 21 16 17 7 14 13 20 11 9 11 14 14 4 6 11 2 5 6 7 9 6 9 5 3 6 4 3 3 3 5 6 9 11 9 10 22 24 21 21 25 18 14
22 10 15 26 21 12 11 12 19 36 11 11 14 21 21 13 13 11 9 5 6 8 3 2 7 8 12 6 10 1 3 6 2 7 7 14 11 11 24 20 18 18 14 10 8
16 5 17 33 15 12 19 9 23 27 14 12 8 12 8 9 9 11 13 11 10 5 8 4 5 10 13 16 13 9 11 7 8 10 8 9 17 15 24 22 23 16 10 4 2
11 12 22 48 11 20 8 15 41 14 13 10 15 18 12 15 10 22 18 19 10 5 3 5 2 5 15 4 11 11 7 6 7 3 10 10 10 13 25 21 7 14 3 2 6
11 6 12 38 28 12 22 26 27 22 32 27 13 15 13 15 14 5 2 5 12 12 11 6 9 11 14 11 10 6 10 18 11 8 12 22 29 44 43 8 16 12 5 2 11
25 10 19 10 24 28 12 8 34 30 25 13 12 28 15 10 15 23 15 14 13 9 7 3 9 11 21 24 14 10 20 30 18 28 20 45 41 45 33 32 18 9 5 4 14
15 10 8 9 31 32 29 18 25 11 18 17 19 9 20 24 13 4 8 4 5 1 8 3 7 4 10 9 17 25 36 27 33 34 36 39 45 36 27 8 14 21 15 16 23
26 15 6 13 6 18 26 31 15 16 10 0 3 3 6 7 25 18 10 4 4 9 10 12 5 4 11 6 9 15 25 36 32 35 34 34 33 3 5 7 12 12 15 24 26
Wind_Direction_850mb
286 295 306 315 321 324 323 323 322 321 320 318 318 318 319 319 317 310 303 283 285 281 250 247 245 277 272 254 270 302 296 277 278 298 273 129 177 247 254 271 283 262 263 279 286
293 297 298 301 305 308 311 313 314 315 315 315 315 316 318 322 320 310 299 298 276 248 219 230 221 224 237 217 203 225 235 263 314 338 332 327 327 316 303 289 284 291 280 256 258
286 291 296 299 300 302 304 304 306 307 308 309 311 313 317 325 328 307 330 51 98 128 165 216 236 238 246 258 212 209 227 277 309 324 342 323 306 297 286 275 269 276 293 319 259
284 289 291 295 297 300 300 299 302 304 305 307 308 309 311 318 304 321 314 287 266 260 264 238 222 216 233 243 228 253 255 268 281 284 301 284 300 301 283 274 268 279 284 290 288
282 286 289 292 294 296 296 298 301 304 306 307 306 305 307 293 255 273 281 281 272 270 265 218 235 236 260 268 304 271 259 269 291 301 287 286 276 282 282 274 271 280 284 283 280
281 284 285 288 293 296 298 301 304 305 306 306 304 300 292 249 264 267 273 269 257 245 239 207 222 271 293 285 267 297 331 307 287 276 270 261 271 292 280 280 281 277 290 286 281
270 274 280 285 289 292 296 303 307 309 309 305 301 294 272 267 266 266 271 273 253 237 225 241 247 254 307 318 323 319 309 285 273 268 234 197 279 233 274 320 319 296 288 291 294
265 268 274 279 285 293 299 304 307 307 307 302 294 281 257 268 264 268 267 267 260 243 231 224 229 246 256 276 305 273 256 280 264 206 127 123 262 287 318 327 316 295 284 292 299
259 263 266 271 278 285 297 306 310 307 301 293 282 246 261 282 278 280 256 235 268 234 229 242 228 224 262 220 283 229 256 259 284 255 144 170 239 264 284 285 281 276 288 297 302
249 255 262 270 279 291 305 314 310 296 285 283 242 243 244 251 283 295 289 213 194 181 121 173 206 222 227 213 235 276 296 306 306 317 312 298 265 252 299 293 287 297 298 294 78
241 248 261 272 278 291 305 327 325 309 264 224 267 257 275 270 278 273 231 173 136 178 215 194 220 210 231 234 244 274 314 303 303 308 290 286 303 308 284 279 285 285 304 91 77
241 249 262 278 283 284 300 303 290 293 298 276 269 261 261 258 260 257 196 171 181 209 208 122 228 242 298 332 314 308 295 289 281 294 335 321 301 280 284 281 5 70 83 83 73
249 257 272 277 288 268 246 252 296 302 256 283 228 232 221 243 244 230 183 194 187 226 231 217 261 328 305 277 276 271 268 300 315 338 290 302 276 258 56 79 82 66 69 70 70
252 259 260 251 287 223 216 259 302 312 273 187 179 192 188 172 216 235 207 209 215 233 233 242 164 194 272 271 261 280 272 325 320 341 287 40 273 305 275 86 71 71 66 63 60
244 241 239 226 192 188 220 237 300 333 289 123 139 160 170 190 145 125 176 200 249 189 182 231 154 177 222 240 245 233 45 303 271 261 304 250 261 252 102 107 97 85 80 75 70
232 239 222 221 224 230 221 193 311 234 242 141 130 162 184 187 172 131 145 200 298 275 222 254 154 198 215 227 267 60 263 253 249 205 284 300 253 294 29 135 111 103 99 92 79
223 222 223 216 214 211 194 173 202 229 130 151 179 161 234 167 170 192 174 190 200 191 203 205 200 217 186 217 123 190 264 317 344 85 213 42 354 297 61 138 135 126 110 99 84
217 210 204 200 198 171 175 175 221 223 248 100 120 165 230 156 218 193 270 238 229 237 258 244 266 153 169 212 96 197 287 176 244 201 265 341 252 252 113 102 108 110 105 89 74
183 186 195 206 207 201 179 214 233 203 280 233 140 241 224 229 190 194 217 249 266 164 195 304 233 104 142 73 138 88 208 324 276 55 312 227 238 98 121 122 118 105 89 74 63
213 217 223 218 206 208 243 225 220 232 3 334 220 233 269 284 161 193 314 74 81 41 33 37 295 264 89 104 61 157 23 321 17 266 242 262 267 266 163 141 109 92 92 77 60
186 198 202 208 192 193 227 222 237 255 298 237 247 257 272 269 198 226 240 138 48 161 144 193 230 270 1 197 206 162 242 193 140 156 242 272 268 98 91 98 97 101 104 103 103
184 198 185 183 165 208 231 230 238 260 242 252 272 265 256 309 292 278 227 185 83 55 150 82 113 260 233 294 317 290 284 251 206 224 230 267 250 111 113 108 119 144 145 157 121
201 197 176 180 197 215 246 232 241 233 226 230 219 216 205 233 237 235 243 92 96 85 166 119 154 320 323 86 36 59 357 338 347 185 217 267 260 133 132 136 142 142 150 330 339
185 203 179 202 232 237 209 230 223 219 240 235 272 252 234 236 248 238 188 106 87 102 85 56 185 201 233 260 74 263 249 256 257 275 299 269 291 291 296 321 144 157 193 304 339
198 236 190 199 216 222 234 244 223 223 209 216 235 236 223 245 251 246 223 132 113 128 93 6 223 199 252 271 293 274 269 276 265 259 251 269 277 274 293 304 123 165 198 31 344
197 191 213 300 199 207 217 225 239 256 178 209 235 265 225 231 186 224 66 89 156 68 108 87 249 131 276 219 255 262 258 260 261 261 261 261 268 277 294 2 73 57 27 337 318
215 204 160 193 207 196 215 218 219 222 249 26 18 191 168 33 75 88 80 26 26 149 153 171 182 102 265 91 24 305 245 244 254 259 263 267 272 5 165 94 56 28 321 298 300